Home > Weather > Hameln > Past weeks

Flag for Germany Past Weather in Hameln, Lower Saxony, Germany — Yesterday and Last 2 Weeks

Now
63 °F

Mild.


Feels Like: 63 °F
Forecast: 53 / 70 °F
Wind: 5 mph from South

Location: Bueckeburg

Current Time: Jul 31, 2016 at 2:34:30 AM

Latest Report: Jul 31, 2016 at 1:20 AM


Visibility: 3 mi

Pressure: 29.89 "Hg

Humidity: 94%

Dew Point: 61 °F

Location of HamelnLocation

Past Weather in Hameln — Graph

°F

Hameln Temperature Yesterday

Maximum temperature yesterday: 72 °F (at 12:20 PM)
Minimum temperature yesterday: 61 °F (at 6:20 AM)
Average temperature yesterday: 67 °F

High & Low Weather Summary for the Past Weeks

 TemperatureHumidityPressure
High90 °F (Jul 20, 3:20 PM)100% (Jul 17, 3:20 AM)30.24 "Hg (Jul 17, 3:20 AM)
Low54 °F (Jul 16, 2:20 AM)28% (Jul 17, 4:20 PM)29.83 "Hg (Jul 29, 5:20 PM)
Average70 °F70%30.03 "Hg
* Reported Jul 16 1:20 AM — Jul 31 1:20 AM, Hameln, Weather by CustomWeather, © 2016

Note: Actual official high and low records may vary slightly from our data, if they occured in-between our weather recording intervals... More about our weather records

Advertising

Hameln Weather History for the Previous 24 Hours

Scroll right to see more
 ConditionsComfort  
Time TempWeatherWind HumidityBarometerVisibility
1:20 AM
Sun, Jul 31
63 °FMild.5 mph94%29.89 "Hg2 mi
12:20 AM64 °FMild.2 mph88%29.89 "Hg2 mi
11:20 PM
Sat, Jul 30
64 °FMild.2 mph88%29.89 "Hg2 mi
10:20 PM64 °FMild.5 mph94%29.89 "Hg3 mi
9:20 PM66 °FMild.3 mph78%29.89 "Hg3 mi
8:20 PM66 °FMild.2 mph78%29.92 "Hg3 mi
7:20 PM68 °FPartly sunny.2 mph73%29.89 "HgN/A
6:20 PM68 °FBroken clouds.6 mph69%29.89 "HgN/A
5:20 PM72 °FScattered clouds.9 mph61%29.89 "HgN/A
4:20 PM72 °FScattered clouds.13 mph61%29.89 "HgN/A
3:20 PM72 °FBroken clouds.12 mph65%29.89 "HgN/A
2:20 PM72 °FScattered clouds.13 mph61%29.89 "HgN/A
1:20 PM70 °FScattered clouds.14 mph60%29.89 "HgN/A
12:20 PM72 °FScattered clouds.17 mph57%29.86 "HgN/A
11:20 AM68 °FScattered clouds.14 mph60%29.86 "HgN/A
10:20 AM66 °FScattered clouds.13 mph68%29.89 "HgN/A
9:20 AM66 °FPartly sunny.14 mph73%29.86 "HgN/A
8:20 AM66 °FPartly sunny.13 mph73%29.86 "HgN/A
7:20 AM64 °FMild.9 mph78%29.86 "Hg3 mi
6:20 AM61 °FCool.9 mph88%29.86 "Hg3 mi
5:20 AM63 °FMild.7 mph83%29.86 "Hg3 mi
4:20 AM63 °FMild.7 mph83%29.86 "Hg4 mi
3:20 AM63 °FMild.6 mph83%29.86 "Hg4 mi
2:20 AM64 °FMild.6 mph78%29.86 "Hg3 mi
Weather by CustomWeather, © 2016

See weather overviewHow to use our weather pages